This demonstration page uses our WeatherBlox Daily Observations layout. Learn more.

Hourly Observations for October 12, 2019

Temp ( °F °C ) Dew Point ( °F °C ) Humidity (%) Winds ( mph kmh ) Pressure ( in mb ) Visibility ( mi km ) Precip ( " mm )
12:15 am 00:15 Clear 32 0.1 19 -7.2 58 58 WSW 7 11 30.24 1024 10 16.09344 0 0
12:35 am 00:35 Clear 33 0.4 19 -7.1 58 58 SW 6 9 30.24 1024 10 16.09344 0 0
12:55 am 00:55 Clear 33 0.5 19 -7.2 57 57 Calm 30.18 1022 10 16.09344 0 0
1:15 am 01:15 Clear 34 1 19 -7.1 55 55 WSW 7 11 30.18 1022 10 16.09344 0 0
1:35 am 01:35 Clear 34 1.1 19 -7.2 54 54 WSW 6 9 30.18 1022 10 16.09344 0 0
1:55 am 01:55 Clear 34 1.3 19 -7.5 52 52 WSW 7 11 30.18 1022 10 16.09344 0 0
2:15 am 02:15 Clear 34 1.2 18 -7.6 52 52 WSW 9 15 30.18 1022 10 16.09344 0 0
2:35 am 02:35 Clear 33 0.6 18 -7.6 55 55 WSW 7 11 30.18 1022 10 16.09344 0 0
2:55 am 02:55 Clear 33 0.5 18 -7.8 54 54 WSW 6 9 30.15 1021 10 16.09344 0 0
3:15 am 03:15 Clear 32 0 18 -7.8 56 56 WSW 5 7 30.18 1022 10 16.09344 0 0
3:35 am 03:35 Clear 31 -0.4 18 -7.7 58 58 SW 6 9 30.18 1022 10 16.09344 0 0
3:55 am 03:55 Clear 34 1 18 -8 51 51 WSW 9 15 30.15 1021 10 16.09344 0 0
4:15 am 04:15 Clear 33 0.8 17 -8.1 52 52 WSW 8 13 30.15 1021 10 16.09344 0 0
4:35 am 04:35 Clear 33 0.6 17 -8.1 53 53 SW 8 13 30.12 1020 10 16.09344 0 0
4:55 am 04:55 Clear 33 0.7 17 -8.1 52 52 WSW 7 11 30.12 1020 10 16.09344 0 0
5:15 am 05:15 Clear 32 0.2 18 -8 54 54 WSW 8 13 30.12 1020 10 16.09344 0 0
5:35 am 05:35 Clear 33 0.5 18 -8 53 53 W 10 17 30.12 1020 10 16.09344 0 0
5:55 am 05:55 Clear 32 0.1 18 -7.6 57 57 W 10 17 30.12 1020 10 16.09344 0 0
6:15 am 06:15 Clear 32 -0.1 19 -7.2 59 59 W 10 17 30.12 1020 10 16.09344 0 0
6:35 am 06:35 Clear 31 -0.7 19 -7 63 63 W 9 15 30.15 1021 10 16.09344 0 0
6:55 am 06:55 Clear 30 -1 20 -6.7 66 66 W 6 9 30.15 1021 10 16.09344 0 0
7:15 am 07:15 Clear 29 -1.5 20 -6.6 69 69 W 6 9 30.15 1021 10 16.09344 0 0
7:35 am 07:35 Clear 28 -2.2 20 -6.4 73 73 WNW 5 7 30.15 1021 10 16.09344 0 0
7:55 am 07:55 Sunny 28 -2 21 -6.1 74 74 W 7 11 30.15 1021 10 16.09344 0 0
8:15 am 08:15 Sunny 29 -1.5 22 -5.6 74 74 W 5 7 30.15 1021 10 16.09344 0 0
8:35 am 08:35 Sunny 32 0 23 -5.1 69 69 W 7 11 30.12 1020 10 16.09344 0 0
8:55 am 08:55 Sunny 33 0.8 24 -4.6 68 68 WNW 5 7 30.12 1020 10 16.09344 0 0
9:15 am 09:15 Sunny 36 2.2 25 -3.8 65 65 WNW 5 7 30.12 1020 10 16.09344 0 0
9:35 am 09:35 Sunny 40 4.5 26 -3.1 58 58 WNW 6 9 30.09 1019 10 16.09344 0 0
9:55 am 09:55 Sunny 45 7.3 26 -3.5 47 47 WNW 10 17 30.06 1018 10 16.09344 0 0
10:15 am 10:15 Sunny 47 8.6 25 -3.8 42 42 WNW 8 13 30.06 1018 10 16.09344 0 0
10:35 am 10:35 Sunny 49 9.6 25 -3.7 39 39 NW 14 22 30 1016 10 16.09344 0 0
10:55 am 10:55 Sunny 52 11 26 -3.4 37 37 WNW 15 24 30 1016 10 16.09344 0 0
11:15 am 11:15 Sunny 53 11.8 27 -2.8 36 36 WNW 13 20 30 1016 10 16.09344 0 0
11:35 am 11:35 Sunny 54 12.4 26 -3.1 34 34 WNW 14 22 30 1016 10 16.09344 0 0
11:55 am 11:55 Sunny 56 13.6 26 -3.2 31 31 WNW 14 22 29.94 1014 10 16.09344 0 0
12:15 pm 12:15 Sunny 58 14.4 26 -3.4 29 29 WNW 13 20 29.94 1014 10 16.09344 0 0
12:35 pm 12:35 Sunny 59 15 26 -3.5 28 28 WNW 17 28 29.94 1014 10 16.09344 0 0
12:55 pm 12:55 Sunny 60 15.5 25 -3.7 27 27 WNW 15 24 29.94 1014 10 16.09344 0 0
1:15 pm 13:15 Sunny 61 16.1 26 -3.2 27 27 WNW 16 26 29.88 1012 10 16.09344 0 0
1:35 pm 13:35 Sunny 61 16 26 -3.4 26 26 WNW 17 28 29.88 1012 10 16.09344 0 0
1:55 pm 13:55 Sunny 61 15.9 26 -3.3 27 27 NW 15 24 29.88 1012 10 16.09344 0 0
2:15 pm 14:15 Sunny 61 16.3 27 -3 27 27 WNW 13 20 29.88 1012 10 16.09344 0 0
2:35 pm 14:35 Sunny 61 16.2 25 -3.7 25 25 NW 13 20 29.88 1012 10 16.09344 0 0
2:55 pm 14:55 Sunny 61 16.2 26 -3.6 26 26 NW 16 26 29.85 1011 10 16.09344 0 0
3:15 pm 15:15 Sunny 61 16 25 -3.9 25 25 WNW 18 30 29.85 1011 10 16.09344 0 0
3:35 pm 15:35 Sunny 61 16.1 25 -3.8 25 25 WNW 16 26 29.85 1011 10 16.09344 0 0
3:55 pm 15:55 Sunny 62 16.4 25 -4 25 25 WNW 14 22 29.85 1011 10 16.09344 0 0
4:15 pm 16:15 Sunny 62 16.8 26 -3.5 25 25 NW 17 28 29.85 1011 10 16.09344 0 0
4:35 pm 16:35 Sunny 62 16.5 25 -4.1 24 24 WNW 14 22 29.83 1010 10 16.09344 0 0
4:55 pm 16:55 Sunny 62 16.5 25 -4.1 24 24 NW 16 26 29.83 1010 10 16.09344 0 0
5:15 pm 17:15 Sunny 62 16.5 25 -3.8 25 25 WNW 14 22 29.83 1010 10 16.09344 0 0
5:35 pm 17:35 Sunny 62 16.5 26 -3.6 25 25 WNW 12 19 29.83 1010 10 16.09344 0 0
5:55 pm 17:55 Sunny 61 16.1 26 -3.5 26 26 WNW 10 17 29.83 1010 10 16.09344 0 0
6:15 pm 18:15 Sunny 60 15.6 26 -3.3 27 27 NW 7 11 29.83 1010 10 16.09344 0 0
6:35 pm 18:35 Sunny 59 14.8 26 -3.5 28 28 WNW 6 9 29.83 1010 10 16.09344 0 0
6:55 pm 18:55 Sunny 56 13.5 26 -3.6 31 31 WNW 6 9 29.88 1012 10 16.09344 0 0
7:15 pm 19:15 Clear 54 12 25 -3.8 33 33 WNW 5 7 29.88 1012 10 16.09344 0 0
7:35 pm 19:35 Clear 50 10.2 25 -3.9 37 37 NNW 5 7 29.91 1013 10 16.09344 0 0
7:55 pm 19:55 Clear 51 10.6 25 -3.9 36 36 NNW 7 11 29.91 1013 10 16.09344 0 0
8:15 pm 20:15 Clear 50 9.8 25 -4 38 38 NNW 6 9 29.91 1013 10 16.09344 0 0
8:35 pm 20:35 Clear 45 7.4 25 -4.1 44 44 NW 3 6 29.94 1014 10 16.09344 0 0
8:55 pm 20:55 Clear 44 6.7 25 -3.7 48 48 NNW 3 6 29.94 1014 10 16.09344 0 0
9:15 pm 21:15 Clear 43 6.3 26 -3.6 50 50 Calm 29.94 1014 10 16.09344 0 0
9:35 pm 21:35 Clear 42 5.7 26 -3.3 53 53 Calm 29.94 1014 10 16.09344 0 0
9:55 pm 21:55 Clear 38 3.2 27 -3 64 64 Calm 29.97 1015 10 16.09344 0 0
10:15 pm 22:15 Clear 37 3 27 -2.7 67 67 SSW 3 6 29.97 1015 10 16.09344 0 0
10:35 pm 22:35 Clear 37 3 28 -2.3 68 68 Calm 29.97 1015 10 16.09344 0 0
10:55 pm 22:55 Clear 35 1.7 28 -2.5 74 74 Calm 30 1016 10 16.09344 0 0
11:15 pm 23:15 Clear 34 1.1 28 -2.3 78 78 WNW 3 6 30 1016 10 16.09344 0 0
11:35 pm 23:35 Clear 37 2.6 28 -2.5 69 69 WNW 3 6 29.97 1015 10 16.09344 0 0
11:55 pm 23:55 Clear 35 1.6 27 -2.7 73 73 WNW 3 6 30 1016 10 16.09344 0 0

Powered by AerisWeather